カタログに戻る

EXPLORER 25

INJUN-4

運用中科学PO
NORAD 932·PAYLOAD·🇺🇸 United States

打ち上げ Nov 21, 1964 から Vandenberg Space Force Base

Loading…

次のパス (今後24時間)

TLE

最新Source: Space-Track

元期: Sep 14, 2026, 14:06 UTC

1 00932U 64076B   26257.58750898  .00000315  00000-0  10267-3 0  9997
2 00932  81.3404 309.6780 1118421  65.5946 305.7667 12.67313163830459

AllMySatでEXPLORER 25をリアルタイム追跡

Download on the App Store